Date String (YYYY-MM-DD hh:mm:ss) UTC,Instrument flags,Ambient pressure (hPa),Sample flow (lpm),Bypass flow (lpm),Sample temperature (°C),Ambient temperature (°C),ASC tube jacket temperature (°C),LED temperature (°C),Box temperature (°C),Sample RH (%),Span deviation,Mass concentration (μg/m³),Mass concentration (μg/m³),Mass concentration (μg/m³)
DateTimeUTC,F1_M11,P_M11,Q1_M11,Q2_M11,T1_M11,T2_M11,T3_M11,T4_M11,T5_M11,U1_M11,ZSPAN_M11,X2_M11,X0_M11,X1_M11
2022-10-06 21:00:00,,0833.1,4.99,0.00,29.8,28.8,00.0,38.5,31.8,16.7,0001.5,0008.27,0014.38,0007.77
2022-10-06 21:01:00,,0833.2,5.03,0.00,29.9,28.9,00.0,38.5,31.8,16.5,0001.1,0008.11,0013.97,0007.66
2022-10-06 21:02:00,,0833.2,4.99,0.00,29.9,28.9,00.0,38.5,31.9,16.8,0001.1,0008.04,0014.61,0007.56
2022-10-06 21:03:00,,0833.2,5.01,0.00,29.9,29.0,00.0,38.5,31.9,16.5,0000.9,0008.03,0014.69,0007.54
2022-10-06 21:04:00,,0833.1,4.99,0.00,30.0,29.0,00.0,38.5,31.9,16.6,0001.0,0007.99,0014.86,0007.50
2022-10-06 21:05:00,,0833.2,5.01,0.00,30.0,28.0,00.0,38.6,31.8,16.4,0001.1,0007.97,0014.86,0007.47
2022-10-06 21:06:00,,0833.2,5.01,0.00,29.9,26.9,00.0,38.5,31.7,16.6,0000.9,0007.94,0014.74,0007.45
2022-10-06 21:07:00,,0833.2,5.00,0.00,29.9,27.0,00.0,38.5,31.6,16.3,0000.9,0007.95,0014.85,0007.45
2022-10-06 21:08:00,,0833.1,5.00,0.00,29.8,27.2,00.0,38.5,31.5,16.3,0000.8,0007.96,0014.43,0007.46
2022-10-06 21:09:00,,0833.2,5.01,0.00,29.8,27.5,00.0,38.5,31.5,16.3,0000.2,0007.92,0014.40,0007.45
2022-10-06 21:10:00,,0833.2,5.01,0.00,29.8,27.8,00.0,38.5,31.5,16.3,0000.6,0007.88,0014.58,0007.42
2022-10-06 21:11:00,,0833.1,5.00,0.00,29.8,28.1,00.0,38.5,31.6,16.2,0000.9,0007.85,0015.40,0007.37
2022-10-06 21:12:00,,0833.1,5.00,0.00,29.8,28.3,00.0,38.5,31.6,16.2,0001.0,0007.84,0015.65,0007.34
2022-10-06 21:13:00,,0833.1,5.00,0.00,29.8,28.5,00.0,38.5,31.7,16.1,0001.3,0007.82,0015.26,0007.31
2022-10-06 21:14:00,,0833.1,5.00,0.00,29.8,28.6,00.0,38.5,31.7,16.3,0001.1,0007.77,0015.70,0007.27
2022-10-06 21:15:00,,0833.2,5.01,0.00,29.8,28.7,00.0,38.5,31.7,16.2,0001.0,0007.72,0016.11,0007.21
2022-10-06 21:16:00,,0833.2,5.00,0.00,29.9,28.8,00.0,38.5,31.8,16.0,0000.9,0007.68,0016.11,0007.16
2022-10-06 21:17:00,,0833.2,4.99,0.00,29.9,28.9,00.0,38.5,31.9,16.2,0001.0,0007.63,0016.10,0007.08
2022-10-06 21:18:00,,0833.2,5.01,0.00,29.9,29.0,00.0,38.6,31.9,15.8,0001.1,0007.57,0015.07,0007.02
2022-10-06 21:19:00,,0833.1,4.99,0.00,30.0,29.1,00.0,38.6,31.9,15.4,0001.2,0007.50,0015.20,0006.96
2022-10-06 21:20:00,,0833.1,4.98,0.00,30.0,28.6,00.0,38.6,31.9,15.4,0001.8,0007.47,0015.06,0006.93
2022-10-06 21:21:00,,0833.1,5.00,0.00,30.0,27.2,00.0,38.6,31.6,15.6,0001.6,0007.48,0014.85,0006.93
2022-10-06 21:22:00,,0833.2,5.01,0.00,29.9,26.9,00.0,38.6,31.6,15.7,0002.0,0007.46,0014.00,0006.91
2022-10-06 21:23:00,,0833.1,5.00,0.00,29.8,27.1,00.0,38.5,31.5,15.4,0001.9,0007.47,0013.86,0006.92
2022-10-06 21:24:00,,0833.1,5.00,0.00,29.8,27.4,00.0,38.5,31.5,15.5,0001.4,0007.46,0013.49,0006.90
2022-10-06 21:25:00,,0833.1,5.00,0.00,29.8,27.7,00.0,38.5,31.5,15.7,0001.4,0007.44,0013.14,0006.87
2022-10-06 21:26:00,,0833.1,5.01,0.00,29.8,28.0,00.0,38.5,31.6,15.8,0001.7,0007.40,0012.77,0006.86
2022-10-06 21:27:00,,0833.1,5.00,0.00,29.8,28.2,00.0,38.5,31.6,15.6,0001.5,0007.37,0012.73,0006.84
2022-10-06 21:28:00,,0833.1,5.00,0.00,29.8,28.4,00.0,38.5,31.7,15.9,0001.8,0007.40,0012.79,0006.88
2022-10-06 21:29:00,,0833.1,5.00,0.00,29.8,28.6,00.0,38.5,31.7,16.0,0001.7,0007.43,0013.88,0006.89
2022-10-06 21:30:00,,0833.1,5.01,0.00,29.8,28.7,00.0,38.5,31.7,15.9,0001.6,0007.47,0013.89,0006.92
2022-10-06 21:31:00,,0833.1,5.00,0.00,29.9,28.8,00.0,38.5,31.8,16.0,0001.4,0007.53,0014.01,0006.97
2022-10-06 21:32:00,,0833.1,5.01,0.00,29.9,28.9,00.0,38.5,31.9,15.6,0001.3,0007.56,0014.70,0007.02
2022-10-06 21:33:00,,0833.2,4.99,0.00,29.9,29.0,00.0,38.6,31.9,15.8,0001.0,0007.63,0014.96,0007.08
2022-10-06 21:34:00,,0833.1,5.00,0.00,30.0,29.0,00.0,38.6,31.9,15.9,0001.0,0007.64,0014.95,0007.10
2022-10-06 21:35:00,,0833.1,4.99,0.00,30.0,27.7,00.0,38.6,31.8,16.0,0001.3,0007.70,0015.40,0007.13
2022-10-06 21:36:00,,0833.1,5.00,0.00,29.9,26.9,00.0,38.5,31.6,16.2,0001.6,0007.76,0015.71,0007.18
2022-10-06 21:37:00,,0833.2,5.01,0.00,29.9,27.0,00.0,38.5,31.6,16.2,0001.3,0007.83,0015.89,0007.21
2022-10-06 21:38:00,,0833.1,5.01,0.00,29.8,27.3,00.0,38.5,31.5,16.4,0001.2,0007.87,0015.98,0007.23
2022-10-06 21:39:00,,0833.2,5.01,0.00,29.8,27.6,00.0,38.5,31.5,16.1,0001.3,0007.89,0016.04,0007.26
2022-10-06 21:40:00,,0833.2,5.00,0.00,29.8,27.9,00.0,38.5,31.6,16.2,0001.5,0007.95,0014.91,0007.33
2022-10-06 21:41:00,,0833.1,5.00,0.00,29.8,28.1,00.0,38.5,31.6,16.3,0001.5,0007.96,0015.20,0007.34
2022-10-06 21:42:00,,0833.1,5.00,0.00,29.8,28.3,00.0,38.5,31.6,16.2,0001.5,0007.93,0015.38,0007.33
2022-10-06 21:43:00,,0833.1,5.00,0.00,29.8,28.5,00.0,38.5,31.7,16.2,0001.6,0007.93,0014.69,0007.35
2022-10-06 21:44:00,,0833.1,4.99,0.00,29.8,28.6,00.0,38.5,31.7,16.4,0001.2,0007.92,0014.51,0007.32
2022-10-06 21:45:00,,0833.2,5.01,0.00,29.8,28.8,00.0,38.5,31.7,16.0,0001.1,0007.90,0014.48,0007.29
2022-10-06 21:46:00,,0833.1,4.99,0.00,29.9,28.9,00.0,38.5,31.8,15.9,0001.0,0007.87,0014.45,0007.30
2022-10-06 21:47:00,,0833.1,5.00,0.00,29.9,29.0,00.0,38.5,31.9,15.9,0000.8,0007.85,0014.44,0007.32
2022-10-06 21:48:00,,0833.1,4.99,0.00,29.9,29.0,00.0,38.6,31.9,16.0,0000.8,0007.89,0014.03,0007.40
2022-10-06 21:49:00,,0833.1,5.01,0.00,30.0,29.1,00.0,38.6,31.9,15.9,0001.4,0007.93,0013.94,0007.45
2022-10-06 21:50:00,,0833.1,4.98,0.00,30.0,28.4,00.0,38.6,31.9,15.9,0001.2,0007.94,0013.83,0007.47
2022-10-06 21:51:00,,0833.1,5.00,0.00,30.0,27.1,00.0,38.6,31.8,15.8,0001.3,0007.89,0013.72,0007.46
2022-10-06 21:52:00,,0833.1,5.00,0.00,29.9,27.0,00.0,38.5,31.7,15.7,0001.3,0007.87,0013.86,0007.46
2022-10-06 21:53:00,,0833.1,5.00,0.00,29.9,27.2,00.0,38.5,31.6,15.8,0001.2,0007.88,0013.75,0007.47
2022-10-06 21:54:00,,0833.1,5.01,0.00,29.8,27.5,00.0,38.5,31.6,15.9,0001.3,0007.89,0014.00,0007.44
2022-10-06 21:55:00,,0833.1,5.01,0.00,29.8,27.8,00.0,38.5,31.6,16.0,0001.8,0007.87,0013.94,0007.43
2022-10-06 21:56:00,,0833.1,4.99,0.00,29.8,28.1,00.0,38.5,31.7,15.9,0001.9,0007.86,0014.13,0007.41
2022-10-06 21:57:00,,0833.1,5.00,0.00,29.8,28.3,00.0,38.5,31.7,15.4,0001.8,0007.80,0014.00,0007.36
2022-10-06 21:58:00,,0833.1,5.01,0.00,29.8,28.5,00.0,38.5,31.7,15.4,0001.8,0007.74,0013.40,0007.29
2022-10-06 21:59:00,,0833.1,5.00,0.00,29.9,28.7,00.0,38.5,31.7,15.4,0001.7,0007.62,0013.32,0007.17
